Change the Weather History Date:

Wednesday, October 16, 2013

  Actual Average Record
Temperature  
Mean Temperature 54 °F -  
Max Temperature 73 °F 70 °F - ()
Min Temperature 34 °F 46 °F - ()
Degree Days  
Heating Degree Days 12    
Growing Degree Days 4 (Base 50)    
Moisture  
Dew Point 32 °F    
Average Humidity 40    
Maximum Humidity 81    
Minimum Humidity 11    
Precipitation  
Precipitation 0.00 in 0.09 in - ()
Sea Level Pressure  
Sea Level Pressure 29.96 in    
Wind  
Wind Speed 11 mph ()    
Max Wind Speed 28 mph    
Max Gust Speed 40 mph    
Visibility 6.2 miles    
Events      
T = Trace of Precipitation, MM = Missing Value Source: Averaged Metar Reports

Daily Weather History Graph

Daily Weather History Graph

Search for Another Location

Airport or City:

Trip Planner

Search our weather history database for the weather conditions in past years. The results will help you decide how hot, cold, wet, or windy it might be!

Date:

Astronomy

Oct. 16, 2013 Rise Set
Actual Time 6:19 AM AEDT 7:18 PM AEDT
Civil Twilight 5:53 AM AEDT 7:44 PM AEDT
Nautical Twilight 5:22 AM AEDT 8:15 PM AEDT
Astronomical Twilight 4:50 AM AEDT 8:47 PM AEDT
Moon 4:34 PM AEDT (10/16) 4:19 AM AEDT (10/16)
Length of Visible Light 13h 51m
Length of Day
12h 59m
Waxing Gibbous, 90% of the Moon is Illuminated
Oct 16
Waxing Gibbous
Oct 19
Full
Oct 27
Last Quarter
Nov 3
New
Nov 10
First Quarter

Hourly Weather History & Observations

Time (AEDT) Temp. Windchill Dew Point Humidity Pressure Visibility Wind Dir Wind Speed Gust Speed Precip Events Conditions
12:00 AM 47 °F - 35 °F 51% 30.10 in - North 4.6 mph - -  
12:00 AM 46.4 °F 44.3 °F 35.6 °F 66% 30.09 in 6.2 mi North 4.6 mph - N/A   Unknown
12:30 AM 44.6 °F 41.4 °F 35.6 °F 71% 30.09 in 6.2 mi ESE 5.8 mph - N/A   Unknown
1:00 AM 44.6 °F 42.2 °F 33.8 °F 66% 30.09 in 6.2 mi North 4.6 mph - N/A   Unknown
1:30 AM 41.0 °F 37.1 °F 33.8 °F 76% 30.09 in 6.2 mi East 5.8 mph - N/A   Unknown
2:00 AM 41 °F - 34 °F 66% 30.08 in - NNE 4.6 mph - -  
2:00 AM 41.0 °F 38.0 °F 33.8 °F 76% 30.09 in 6.2 mi NNE 4.6 mph - N/A   Unknown
2:30 AM 41.0 °F 39.0 °F 33.8 °F 76% 30.06 in 6.2 mi NNW 3.5 mph - N/A   Unknown
3:00 AM 41 °F - 33 °F 62% 30.06 in - Calm Calm - -  
3:00 AM 41.0 °F - 32.0 °F 70% 30.06 in 6.2 mi Calm Calm - N/A   Unknown
3:30 AM 39.2 °F 35.0 °F 30.2 °F 70% 30.06 in 6.2 mi SE 5.8 mph - N/A   Unknown
4:00 AM 39.2 °F 35.9 °F 32.0 °F 75% 30.06 in 6.2 mi SSE 4.6 mph - N/A   Unknown
4:30 AM 37.4 °F - 32.0 °F 81% 30.06 in - SSW 2.3 mph - N/A   Clear
5:00 AM 36 °F - 31 °F 76% 30.05 in - SSE 5.8 mph - -  
5:00 AM 37.4 °F 32.8 °F 32.0 °F 81% 30.06 in - SSE 5.8 mph - N/A   Clear
5:30 AM 42.8 °F 38.0 °F 35.6 °F 76% 30.04 in - ESE 8.1 mph - N/A   Clear
6:00 AM 42 °F - 33 °F 60% 30.05 in - SSW 3.5 mph - -  
6:00 AM 41.0 °F 39.0 °F 33.8 °F 76% 30.06 in - SSW 3.5 mph - N/A   Clear
6:30 AM 41.0 °F 37.1 °F 35.6 °F 81% 30.06 in - WNW 5.8 mph - N/A   Clear
7:00 AM 39.2 °F - 33.8 °F 81% 30.06 in - East 2.3 mph - N/A   Clear
7:30 AM 44.6 °F 42.2 °F 37.4 °F 76% 30.06 in - West 4.6 mph - N/A   Clear
8:00 AM 52 °F - 37 °F 46% 30.07 in - East 3.5 mph - -  
8:00 AM 51.8 °F - 37.4 °F 58% 30.06 in - East 3.5 mph - N/A   Clear
8:30 AM 57.2 °F - 37.4 °F 48% 30.06 in - NW 5.8 mph - N/A   Clear
9:00 AM 60 °F - 36 °F 28% 30.06 in - NW 13.8 mph - -  
9:00 AM 60.8 °F - 35.6 °F 39% 30.06 in - NW 13.8 mph - N/A   Clear
9:30 AM 62.6 °F - 35.6 °F 37% 30.06 in - NW 13.8 mph - N/A   Clear
10:00 AM 62.6 °F - 35.6 °F 37% 30.06 in - NNW 16.1 mph - N/A   Clear
10:30 AM 64.4 °F - 35.6 °F 34% 30.06 in - NW 21.9 mph - N/A   Clear
11:00 AM 63 °F - 35 °F 23% 30.04 in - NW 21.9 mph - -  
11:00 AM 62.6 °F - 33.8 °F 34% 30.04 in - NW 21.9 mph - N/A   Clear
11:30 AM 66.2 °F - 35.6 °F 32% 30.04 in - NNW 19.6 mph - N/A   Clear
12:00 PM 66 °F - 38 °F 24% 30.01 in - NW 24.2 mph - -  
12:00 PM 66.2 °F - 37.4 °F 35% 30.01 in - NW 24.2 mph - N/A   Clear
12:30 PM 66.2 °F - 35.6 °F 32% 29.98 in - NNW 21.9 mph - N/A   Clear
1:00 PM 68.0 °F - 35.6 °F 30% 29.98 in - NW 21.9 mph - N/A   Clear
1:35 PM 69.8 °F - 33.8 °F 27% 29.95 in - NW 23.0 mph - N/A   Clear
1:36 PM 69.8 °F - 33.8 °F 27% 29.95 in - NW 23.0 mph 35.7 mph N/A   Clear
2:00 PM 71 °F - 33 °F 15% 29.94 in - NW 24.2 mph - -  
2:00 PM 71.6 °F - 33.8 °F 25% 29.95 in - NW 24.2 mph - N/A   Clear
2:22 PM 71.6 °F - 33.8 °F 25% 29.92 in - NW 23.0 mph 39.1 mph N/A   Clear
2:26 PM 71.6 °F - 33.8 °F 25% 29.92 in - WNW 24.2 mph - N/A   Clear
2:30 PM 71.6 °F - 32.0 °F 23% 29.92 in - WNW 24.2 mph - N/A   Clear
3:00 PM 72 °F - 33 °F 14% 29.90 in - NW 24.2 mph - -  
3:00 PM 71.6 °F - 32.0 °F 23% 29.92 in - NW 24.2 mph - N/A   Clear
3:19 PM 73.4 °F - 32.0 °F 22% 29.89 in - NW 24.2 mph 35.7 mph N/A   Clear
3:30 PM 71.6 °F - 30.2 °F 22% 29.89 in - NW 26.5 mph - N/A   Clear
3:48 PM 73.4 °F - 30.2 °F 20% 29.89 in - NW 26.5 mph 40.3 mph N/A   Clear
4:00 PM 73.4 °F - 30.2 °F 20% 29.89 in - NW 26.5 mph - N/A   Clear
4:30 PM 71.6 °F - 30.2 °F 22% 29.86 in - NNW 27.6 mph - N/A   Clear
4:58 PM 71.6 °F - 28.4 °F 20% 29.86 in - NW 23.0 mph 34.5 mph N/A   Clear
5:00 PM 72 °F - 29 °F 11% 29.85 in - NW 20.7 mph - -  
5:00 PM 71.6 °F - 28.4 °F 20% 29.86 in - NW 20.7 mph - N/A   Clear
5:18 PM 71.6 °F - 28.4 °F 20% 29.86 in - NW 23.0 mph 35.7 mph N/A   Clear
5:30 PM 71.6 °F - 28.4 °F 20% 29.86 in - NW 24.2 mph - N/A   Clear
6:00 PM 71 °F - 28 °F 11% 29.84 in - NW 20.7 mph - -  
6:00 PM 71.6 °F - 28.4 °F 20% 29.86 in - NW 20.7 mph - N/A   Clear
6:30 PM 69.8 °F - 26.6 °F 20% 29.83 in - NW 23.0 mph - N/A   Clear
7:00 PM 68.0 °F - 28.4 °F 23% 29.83 in - NNW 16.1 mph - N/A   Clear
7:30 PM 66.2 °F - 30.2 °F 26% 29.86 in - NNW 13.8 mph - N/A   Clear
8:00 PM 65 °F - 29 °F 15% 29.84 in - North 13.8 mph - -  
8:00 PM 64.4 °F - 28.4 °F 26% 29.86 in - North 13.8 mph - N/A   Clear
8:30 PM 64.4 °F - 28.4 °F 26% 29.86 in - North 12.7 mph - N/A   Clear
9:00 PM 63 °F - 29 °F 16% 29.84 in - North 11.5 mph - -  
9:00 PM 62.6 °F - 28.4 °F 27% 29.86 in 6.2 mi North 11.5 mph - N/A   Unknown
9:30 PM 64.4 °F - 28.4 °F 26% 29.83 in 6.2 mi NNW 11.5 mph - N/A   Unknown
10:00 PM 62.6 °F - 28.4 °F 27% 29.83 in 6.2 mi NNW 12.7 mph - N/A   Unknown
10:30 PM 60.8 °F - 28.4 °F 29% 29.83 in 6.2 mi NNW 12.7 mph - N/A   Unknown
11:00 PM 61 °F - 28 °F 17% 29.81 in - NNW 15.0 mph - -  
11:00 PM 60.8 °F - 28.4 °F 29% 29.83 in 6.2 mi NNW 15.0 mph - N/A   Unknown
11:30 PM 60.8 °F - 26.6 °F 27% 29.80 in 6.2 mi NNW 16.1 mph - N/A   Unknown